This demonstration page uses our WeatherBlox Daily Observations layout. Learn more.

Left ArrowRight Arrow

41.86663, -103.66717

Hourly Observations for June 2, 2021

Temp ( °F °C ) Dew Point ( °F °C ) Humidity (%) Winds ( mph kmh ) Pressure ( in mb ) Visibility ( mi km ) Precip ( " mm )
12:53 am 00:53 Clear 48 8.9 45 7.2 89 89 NNE 3 6 29.99 1016 10 16 N/A
1:53 am 01:53 Clear 47 8.3 45 7.2 93 93 N 3 6 30.00 1016 10 16 N/A
2:53 am 02:53 Clear 46 7.8 44 6.7 93 93 NNW 3 6 29.99 1016 10 16 N/A
3:53 am 03:53 Clear 44 6.7 43 6.1 96 96 NNW 5 7 29.98 1015 10 16 N/A
4:53 am 04:53 Clear 46 7.8 44 6.7 93 93 NNW 3 6 29.97 1015 10 16 N/A
5:53 am 05:53 Sunny 44 6.7 43 6.1 96 96 NNW 3 6 30.00 1016 10 16 N/A
6:53 am 06:53 Sunny 50 10 48 8.9 93 93 N N/A 30.00 1016 10 16 N/A
7:53 am 07:53 Sunny 59 15 51 10.6 75 75 WNW 7 11 29.99 1016 10 16 N/A
8:53 am 08:53 Sunny 66 18.9 53 11.7 63 63 W 7 11 29.99 1016 10 16 N/A
9:53 am 09:53 Sunny 71 21.7 62 16.7 73 73 N N/A 29.97 1015 10 16 N/A
10:53 am 10:53 Sunny 76 24.4 67 19.4 74 74 SSE 6 9 29.96 1014 10 16 N/A
11:53 am 11:53 Mostly Sunny 77 25 68 20 74 74 N 5 7 29.95 1014 10 16 N/A
12:53 pm 12:53 Mostly Cloudy 79 26.1 72 22.2 79 79 VRB 3 6 29.95 1014 10 16 N/A
1:53 pm 13:53 Mostly Sunny 79 26.1 71 21.7 77 77 WNW 9 15 29.94 1014 10 16 N/A
2:53 pm 14:53 Mostly Sunny 81 27.2 73 22.8 77 77 VRB 5 7 29.93 1014 10 16 N/A
3:53 pm 15:53 Partly Cloudy 83 28.3 76 24.4 79 79 N 7 11 29.91 1013 10 16 N/A
4:53 pm 16:53 Sunny 81 27.2 72 22.2 74 74 NNW 6 9 29.90 1013 10 16 N/A
5:53 pm 17:53 Sunny 80 26.7 73 22.8 79 79 SE 3 6 29.90 1013 10 16 N/A
6:53 pm 18:53 Sunny 78 25.6 70 21.1 76 76 SE 3 6 29.89 1012 10 16 N/A
7:53 pm 19:53 Sunny 74 23.3 64 17.8 71 71 SSE 3 6 29.89 1012 10 16 N/A
8:53 pm 20:53 Clear 69 20.6 56 13.3 63 63 SE 5 7 29.90 1012 10 16 N/A
9:53 pm 21:53 Clear 63 17.2 48 8.9 58 58 E 6 9 29.92 1013 10 16 N/A
10:53 pm 22:53 Clear 59 15 47 8.3 64 64 E 7 11 29.92 1013 10 16 N/A
11:53 pm 23:53 Clear 58 14.4 48 8.9 70 70 E 8 13 29.91 1013 10 16 N/A

Powered by AerisWeather